Terug naar catalogus

COSMOS 2499 DEB

LostPO
NORAD 56580·DEBRIS·🇷🇺 Russia

Gelanceerd May 23, 2014 vanaf Plesetsk Cosmodrome

Loading…

Volgende Passages (komende 24 uur)

TLE

VerouderdSource: Space-Track

Epoch: Jul 23, 2026, 03:22 UTC

1 56580U 14028BP  26204.14045844  .00013423  00000-0  16496-1 0  9993
2 56580  82.2841 143.6469 0379586  26.2049 335.7754 13.38849688119637

Volg COSMOS 2499 DEB in realtime met AllMySat

Download on the App Store